星链-5158 (STARLINK-5158 )

导读 | 豆包AI

STARLINK-5158是美国SpaceX公司星链互联网星座中的一颗低轨卫星,于2022年10月20日发射入轨。星链项目旨在依托近地轨道密集卫星群,为全球提供高速低延迟的互联网接入,尤其为地面网络覆盖盲区提供连接服务。作为大规模星座部署中的一员,该卫星服务于全球联网需求,同时其大规模部署也引发了太空交通与天文观测等领域的关注。

基本信息
目录编号:
54055
目录名称:
STARLINK-5158
国际标识:
2022-136E
轨道中心:
EARTH
卫星名称:
星链-5158
卫星全名:
星链-5158 (STARLINK-5158 )
卫星状态:
在轨 (已飞行1288 天)
发射日期:
2022-10-20 UTC
国别 :
美国 (US)
星等 :
--
轨道信息
数据来源 国际轨道数据 AOE轨道数据
星历时间 2026-04-30T12:07:19+0800
11小时前
查看轨道信息
2026-04-27T02:00:00+0800
3天前
查看轨道信息
半长轴 6917.882km 6917.886km
偏心率 0.00012 0.0001252
轨道倾角 53.216° 53.212°
近地点辐角 64.265° 79.155°
升交点赤经 113.175° 128.534°
平近点角 295.847° 44.562°
近地点 538.914km 538.882km
远地点 540.576km 540.616km
周期 95.438分钟 95.438分钟
每日圈数 15.088397 15.088382
详细信息
固有亮度:
5
最大亮度:
2.5
卫星平台:
Starlink v1.5
覆盖范围:
全球
运营商:
太空探索技术公司
运营商所在国:
美国
制造商(研发单位):
太空探索技术公司
制造商所在国:
美国
使用方式:
暂无
卫星简介
星链(Starlink)计划是由太空探索技术公司(SpaceX)提出的一个巨型低轨卫星互联网星座项目,计划在2019年至2024年间在太空搭建由约1.2万颗卫星组成的“星链”网络,其中1584颗将部署在地球上空550千米处的近地轨道,并从2020年开始工作。该卫星仍在工作。
2D轨道图
3D轨道图
轨道高度分析图
轨道倾角分析图
轨道综合分析图
查看轨道综合分析图